Back to catalog

STARLINK-2151

AliveCommunicationsVLEO
NORAD 48556·PAYLOAD·🇺🇸 United States

Launched May 15, 2021 from Cape Canaveral Space Force Station

Loading…

Next Passes (next 24 hours)

TLE

FreshSource: CelesTrak SupGP

Epoch: Sep 14, 2026, 21:12 UTC

1 48556C 21041D   26257.88381944 -.00030574  00000+0 -98283-3 0  2573
2 48556  53.1600 341.9809 0001087  89.9966 110.3607 15.31729419    13

Track STARLINK-2151 in real time with AllMySat

Download on the App Store